Location: *
(42.2911°N, 44.4422°E)
Time: 12:13:36
(UTC+00:00)

Daily predictions for brighter satellites

Satellite Brightness Start Highest point End
(mag) Time Altitude Azimuth Time Altitude Azimuth Time Altitude Azimuth
Cosmos 2218 Rocket 4.1 16:11:34 10° SSE 16:17:30 56° E 16:23:30 10° NNE
Cosmos 2237 Rocket 2.2 16:12:19 10° SSW 16:18:00 83° ESE 16:23:43 10° NNE
Terra 3.3 16:16:06 10° ESE 16:19:27 20° ENE 16:22:49 10° NNE
COSMO-SKYMED 1 4.4 16:15:48 10° N 16:19:34 35° WNW 16:23:18 10° SW
Cosmos 1980 3.8 16:14:18 10° SSW 16:19:57 88° WNW 16:25:38 10° NNE
Cosmos 1733 Rocket 3.5 16:16:41 10° SSE 16:20:45 39° E 16:24:51 10° NNE
PSLV R/B 4.3 16:17:55 10° S 16:21:55 55° W 16:25:59 10° NNW
BREEZE-M DEB (TANK) 4.5 16:11:49 10° WNW 16:22:23 63° NNE 16:25:44 10° E
Meteor 1-21 Rocket 4.3 16:16:58 10° N 16:22:38 66° ENE 16:28:23 10° SSE
Cosmos 2242 Rocket 4.2 16:18:44 10° N 16:22:51 36° ENE 16:26:54 10° SE
CZ-4B R/B 4.4 16:21:45 10° SE 16:25:13 37° ENE 16:28:47 10° N
CSL-04 Rocket 3.9 16:19:52 10° SSE 16:25:15 55° ENE 16:30:40 10° N
Resurs 01 Rocket 2.9 16:21:54 10° S 16:26:04 44° W 16:30:15 10° NNW
SJ-6B 3.0 16:24:53 10° S 16:28:29 65° WSW 16:32:05 10° NNW
Helios 1A Rocket 3.2 16:26:08 10° NE 16:28:57 27° E 16:31:43 10° SSE
USA 59 Rocket 0.3 16:28:56 10° NNW 16:32:18 45° NE 16:36:40 10° SE
BREEZE-M DEB (TANK) 4.1 16:36:02 10° W 16:38:41 39° SSW 16:46:41 10° SE
Cosmos 1943 Rocket 3.0 16:33:43 10° NW 16:39:12 51° WSW 16:44:36 10° S
OAO 3 Rocket 4.1 16:36:57 10° WSW 16:41:06 33° S 16:44:41 13° SE
Cosmos 1346 Rocket 3.9 16:41:39 10° NNE 16:44:36 23° ENE 16:46:36 15° ESE
Cosmos 1400 Rocket 2.4 16:43:36 10° S 16:47:09 68° E 16:50:45 10° NNE
Cosmos 2369 Rocket 3.6 16:43:18 10° N 16:47:44 23° NE 16:51:26 13° E
USA 234 3.4 16:41:56 10° ENE 16:48:16 50° SE 16:54:35 10° SSW
SL-4 R/B 3.2 16:45:58 10° S 16:48:40 19° SE 16:50:14 15° E
ADEOS 4.2 16:45:06 12° SE 16:49:30 37° ENE 16:54:16 10° N
Meteor 1-31 Rocket 2.4 16:48:12 10° SSE 16:51:43 77° ENE 16:55:14 10° N
Aureole 3 4.2 16:49:53 10° N 16:55:12 74° E 17:01:24 10° SSE
Meteor 2-21 4.4 16:51:24 10° N 16:57:34 77° E 17:03:45 10° SSE
SL-08 R/B 3.9 16:54:13 10° NNE 16:58:44 36° E 17:03:12 10° SSE
Meteor 1-11 4.1 16:53:33 10° N 16:59:05 82° E 17:04:36 10° SSE
Cosmos 1812 0.4 17:00:40 38° SSW 17:01:09 82° W 17:02:49 10° N
Cosmos 1943 4.5 17:00:13 17° ESE 17:01:40 19° E 17:05:29 10° ENE
USA 238 DEB 4.4 16:56:07 10° NW 17:03:34 63° WSW 17:11:36 10° SSE
USA 238 4.4 16:56:17 10° NW 17:03:46 64° WSW 17:11:47 10° SSE
CZ-4B DEB 4.2 16:58:48 10° SSE 17:04:15 78° ENE 17:09:46 10° N
RESURS DK-1 4.0 17:00:39 10° SW 17:04:19 36° WNW 17:08:00 10° N
CZ-4B R/B 3.4 17:00:00 13° SE 17:04:48 56° ENE 17:10:20 10° N
USA 32 4.2 16:59:53 10° S 17:05:06 79° W 17:10:22 10° N
Cosmos 2278 Rocket 3.5 17:00:16 10° NW 17:05:29 39° WSW 17:10:40 10° S
Cosmos 2221 Rocket 4.5 17:01:59 10° NNE 17:05:56 31° ENE 17:07:55 22° ESE
Cosmos 614 Rocket 4.2 17:04:35 10° NNW 17:09:43 70° WSW 17:14:44 10° S
SL-24 R/B 4.1 17:05:57 10° NNE 17:10:35 70° ESE 17:14:47 10° S
NOSS 2-1 (D) 3.3 17:08:01 10° NW 17:11:34 86° WSW 17:14:33 21° SSE
USA 186 3.6 17:13:44 11° NE 17:13:44 11° NE 17:14:02 10° NE
SKYMED 3 4.3 17:09:06 10° NNE 17:12:55 56° E 17:16:43 10° S
Cosmos 1125 Rocket 4.5 17:09:27 10° SW 17:14:31 50° WNW 17:19:39 10° N
SL-8 R/B 4.0 17:10:03 10° WSW 17:14:46 68° NNW 17:19:29 10° ENE
OAO 2 Rocket 4.0 17:10:20 10° WSW 17:15:04 37° S 17:17:21 24° SE
HBTSS-SV1 4.5 17:11:55 10° WSW 17:16:19 63° S 17:18:44 25° E
ERS-1 Rocket 2.9 17:14:11 14° SSE 17:18:28 83° ENE 17:23:30 10° NNW
NOSS 2-1 (E) 3.2 17:16:07 10° NW 17:19:40 85° ENE 17:21:59 27° SE
Cosmos 405 Rocket 4.5 17:19:36 10° NE 17:20:14 12° NE 17:20:14 12° NE
Cosmos 2292 Rocket 3.1 17:20:08 10° N 17:24:11 62° E 17:25:24 36° SE
NOSS 2-1 (C) 3.4 17:22:03 10° NW 17:25:37 73° SW 17:27:59 27° SSE
Cosmos 2298 Rocket 4.0 17:21:01 10° S 17:26:14 64° ESE 17:31:30 10° NNE
SL-08 R/B 4.4 17:22:12 10° S 17:28:15 66° E 17:34:17 10° NNE
Cosmos 1674 Rocket 3.5 17:24:03 10° N 17:28:24 85° W 17:31:20 21° S
IRS-1A Rocket 4.3 17:26:00 22° SSE 17:29:39 69° ENE 17:35:21 10° N
MetOp-B 4.1 17:26:10 17° SSE 17:30:22 87° WSW 17:35:46 10° NNW
Cosmos 1727 Rocket 4.1 17:24:05 10° N 17:30:26 84° W 17:36:17 12° S
Cosmos 1934 Rocket 4.1 17:25:57 16° SSE 17:30:52 54° E 17:36:52 10° NNE
Okean-O 3.0 17:29:53 33° ESE 17:31:19 45° ENE 17:35:29 10° N
Cosmos 44 3.7 17:26:51 10° SW 17:31:50 69° NW 17:37:08 10° NNE
SL-16 R/B 2.2 17:28:18 10° SSW 17:33:57 87° WNW 17:39:40 10° NNE
Cosmos 1908 Rocket 3.4 17:31:49 19° S 17:34:50 75° E 17:39:09 10° NNE
Ariane Rocket 4.3 17:37:05 22° E 17:38:05 24° ENE 17:42:03 10° NNE
Okean O Rocket 1.6 17:38:37 40° SE 17:39:55 59° ENE 17:44:11 10° N
Geosat 3.8 17:37:56 10° NNE 17:42:57 76° ESE 17:47:56 10° SSW
MOS 1-B 4.3 17:40:22 30° SE 17:43:14 66° ENE 17:48:59 10° N
NOSS 3-1 (C) 4.3 17:36:49 10° NNW 17:43:50 57° NE 17:48:24 29° ESE
Cosmos 1782 Rocket 3.7 17:44:43 45° ESE 17:45:03 46° E 17:49:11 10° NNE
Spot 2 Rocket 3.4 17:43:12 35° SSE 17:45:17 71° ENE 17:50:17 10° N
CZ-4 R/B 3.3 17:44:30 10° SSW 17:47:32 23° W 17:50:34 10° NW
ATLAS 5 CENTAUR R/B 4.1 17:50:40 10° NNE 17:51:07 10° NE 17:51:35 10° NE
Cosmos 1140 Rocket 4.2 17:47:17 10° N 17:52:01 36° ENE 17:52:57 34° E
Cosmos 1656 Rocket 4.2 17:47:35 10° NNW 17:52:55 54° WSW 17:56:02 24° S
USA 245 4.3 17:52:19 41° ESE 17:53:16 46° ENE 17:58:27 10° N
Terra 2.7 17:53:33 19° SSW 17:56:38 46° W 18:01:09 10° NNW
Cosmos 1025 Rocket 3.9 17:53:21 10° NNW 17:57:26 46° W 17:59:42 23° SSW
Cosmos 2123 Rocket 3.9 17:52:52 10° N 17:59:11 90° E 18:02:27 31° S
Cosmos 1300 Rocket 3.7 18:11:23 47° SW 18:12:29 69° W 18:16:46 10° N
COSMOS 2455 3.8 18:08:10 10° NNW 18:13:34 33° NE 18:15:03 29° ENE
Cosmos 1535 Rocket 4.3 18:16:01 44° S 18:18:02 77° E 18:24:12 10° N
Cosmos 2058 4.1 18:14:25 10° N 18:16:50 30° NE 18:16:50 30° NE
Cosmos 1605 Rocket 3.8 18:18:22 49° SSE 18:20:06 74° E 18:26:13 10° N
USA 59 Rocket 2.3 18:18:11 10° WNW 18:20:52 17° WSW 18:22:13 15° SW
ASTEX 1 4.2 18:20:30 29° SSW 18:22:37 46° W 18:27:22 10° NNW
Gbstr 26 Del rocket 3.1 18:18:45 10° SW 18:24:00 87° NNW 18:24:22 75° NE
SL-4 R/B 3.3 18:21:53 10° WSW 18:23:55 30° WSW 18:23:55 30° WSW
Cosmos 2297 3.8 18:21:56 10° NNW 18:27:40 71° WSW 18:28:49 55° S
SPOT 3 Rocket 3.4 18:27:44 73° SSE 18:28:14 86° ENE 18:33:26 10° NNW
SJ 16-02 3.4 18:25:31 10° NNE 18:27:33 17° NE 18:27:33 17° NE
USA 234 3.9 18:24:57 10° NE 18:31:17 54° NNW 18:37:36 10° WSW
Cosmos 2369 Rocket 2.5 18:26:38 10° NNW 18:32:06 57° WSW 18:33:13 48° SSW
Cosmos 1315 Rocket 3.7 18:34:16 45° NNW 18:34:16 45° NNW 18:37:10 10° N
Fengyun 1C 4.5 18:38:49 74° ENE 18:38:49 74° ENE 18:44:03 10° N
Cosmos 1603 4.2 18:44:25 46° ENE 18:44:25 46° ENE 18:48:40 10° NNE
NOSS 3-1 (A) 4.2 18:36:24 10° NNW 18:43:34 62° NE 18:45:58 46° ESE
Cosmos 1943 3.5 18:41:48 25° SW 18:45:06 63° WNW 18:50:45 10° NNE
Lacrosse 5 rocket 3.7 18:45:27 10° N 18:46:17 13° N 18:46:17 13° N
IRS-1C Rocket 4.1 18:50:49 75° WSW 18:50:51 75° WSW 18:56:10 10° NNW
Cosmos 2346 Rocket 4.4 18:45:22 10° N 18:51:34 83° W 18:52:18 70° SSW
Cosmos 921 Rocket 3.9 18:50:18 10° NNW 18:53:31 48° NNW 18:53:31 48° NNW
Cosmos 2100 Rocket 4.4 18:57:23 48° ENE 18:57:23 48° ENE 19:02:33 10° NNE
Cosmos 1975 Rocket 4.1 18:55:24 10° NNW 18:58:58 43° WNW 18:58:58 43° WNW
Okean O Rocket 4.2 19:15:51 12° W 19:16:28 13° W 19:18:22 10° WNW
Ariane Rocket 3.9 19:17:09 42° W 19:17:09 42° W 19:21:29 10° NNW
Cosmos 1656 4.5 19:17:13 10° NNW 19:21:34 43° NNE 19:21:34 43° NNE
ATLAS 5 CENTAUR R/B 3.3 19:29:36 10° NNW 19:31:56 31° NNW 19:31:56 31° NNW
Cosmos 1725 Rocket 4.4 19:39:35 55° NE 19:39:35 55° NE 19:44:37 10° NNE
Cosmos 1459 Rocket 4.1 19:42:24 72° NNW 19:42:24 72° NNW 19:48:06 10° N
Cosmos 1818 4.4 19:38:35 10° NNW 19:42:40 46° N 19:42:40 46° N
BREEZE-M DEB (TANK) 4.4 19:41:03 10° WNW 19:43:55 41° WSW 19:43:55 41° WSW
ATLAS 2AS CENTAUR R/B 3.6 19:50:46 36° ENE 19:50:46 36° ENE 19:54:48 10° NE
Cosmos 1802 Rocket 4.3 19:56:06 64° N 19:56:06 64° N 20:01:20 10° N
BREEZE-M DEB (TANK) 4.4 19:55:11 10° WNW 20:17:42 - ESE 19:58:00 55° NW
COSMOS 2455 3.8 19:53:55 10° NW 19:58:10 39° WNW 19:58:10 39° WNW
SJ 16-02 3.8 20:02:43 10° NNW 20:04:02 19° NW 20:04:02 19° NW
Cosmos 2016 Rocket 4.4 20:10:38 61° NNW 20:10:38 61° NNW 20:15:52 10° N
SeaSat 1 4.0 20:17:06 33° NNW 20:17:06 33° NNW 20:19:48 10° NNW
Cosmos 1697 Rocket 3.8 20:19:51 10° NNW 20:23:43 39° NNE 20:23:43 39° NNE
Cosmos 1980 Rocket 3.6 20:40:42 10° N 20:44:56 33° NE 20:44:56 33° NE
ATLAS 3B R/B 3.1 21:00:33 10° NNW 21:08:16 62° NE 21:08:29 62° ENE
BREEZE-M DEB (TANK) 4.1 21:06:27 10° W 21:15:16 57° N 21:20:09 10° ENE
Cosmos 1833 Rocket 4.1 21:19:39 32° NNW 21:19:39 32° NNW 21:23:41 10° N
Cosmos 2082 Rocket 3.7 21:21:03 31° NE 21:21:03 31° NE 21:24:11 10° NE
CZ-2C R/B 4.4 21:24:58 10° N 21:28:17 38° NNW 21:28:17 38° NNW
USA 229 DEB 4.1 21:26:40 10° NW 21:33:11 67° WNW 21:33:11 67° WNW
USA 229 4.1 21:26:43 10° NW 21:33:18 68° WNW 21:33:18 68° WNW
ATLAS 2AS CENTAUR R/B 3.8 21:38:07 34° WNW 21:39:17 36° NW 21:45:32 10° NNE
SL-16 R/B 4.1 21:39:46 10° N 21:44:19 24° NE 21:46:04 21° ENE
CZ-2C R/B 4.1 21:47:40 32° NW 21:47:40 32° NW 21:50:39 10° NNW
ACS3 Solar Sail 2.2 21:56:12 10° NNE 22:01:13 56° NE 22:01:13 56° NE
IDEFIX/ARIANE 42P 4.0 22:02:10 10° NNE 22:05:39 30° ENE 22:05:39 30° ENE
USA 281 4.1 22:13:29 29° ESE 22:16:16 44° ENE 22:22:26 10° NNW
CZ-4C R/B 3.3 22:20:44 33° N 22:20:44 33° N 22:24:10 10° NNE
Cosmos 1980 Rocket 4.1 22:24:44 10° NW 22:26:39 20° NW 22:26:39 20° NW
CZ-3 Stage 3 4.4 22:31:40 23° SE 22:31:40 23° SE 22:38:38 10° E
Cosmos 2026 Rocket 4.4 22:24:10 10° NNW 22:29:09 52° NW 22:29:09 52° NW
COSMOS 2406 3.5 22:38:43 65° N 22:38:43 65° N 22:43:41 10° NNE
CZ-2D R/B 4.3 22:34:55 10° NE 22:38:06 16° E 22:39:39 14° ESE
NOSS 3-3 (A) 3.9 22:42:46 64° NNE 22:42:46 64° NNE 22:47:53 10° NE
Cosmos 1092 Rocket 4.5 22:39:19 10° NNW 22:44:06 47° NW 22:44:06 47° NW
Cosmos 1486 Rocket 4.3 22:47:33 10° NNW 22:52:00 62° N 22:52:00 62° N
MSX 3.7 22:50:40 10° NNE 22:56:15 84° N 22:56:15 84° N
FENGYUN 3A 3.8 22:51:04 10° NNE 22:56:17 70° E 22:56:17 70° E
Cosmos 2360 Rocket 3.2 22:51:41 10° NNW 22:57:06 43° ENE 23:01:22 16° SE
Nimbus 7 Rocket 4.4 22:51:33 10° N 22:57:33 72° WNW 22:57:33 72° WNW
ATLAS 3B R/B 4.2 22:52:03 10° NW 22:55:41 24° WNW 22:55:41 24° WNW
NOSS 3-3 (C) 3.7 22:59:37 72° NNW 22:59:37 72° NNW 23:05:19 10° NNE
USA 267 3.4 22:55:06 10° NE 23:01:33 57° SE 23:02:10 55° SSE
Cosmos 2333 Rocket 2.2 22:56:07 10° NNW 23:01:49 78° ENE 23:02:07 75° E
Cosmos 1777 Rocket 4.1 22:56:57 10° NNW 23:01:49 72° NNE 23:01:49 72° NNE
Cosmos 2082 Rocket 3.6 23:02:51 27° NW 23:02:59 27° NW 23:07:48 10° N
Resurs 1-4 Rocket 3.5 22:59:49 10° NE 23:04:29 30° E 23:05:50 27° ESE
SL-08 ROCKET BODY 4.5 23:01:52 10° NNW 23:07:23 61° WNW 23:07:23 61° WNW
NPP 3.5 23:04:16 10° NNE 23:09:33 85° NNW 23:09:33 85° NNW
BREEZE-M R/B 4.5 23:05:33 10° WNW 23:11:18 68° NNE 23:19:16 10° ESE
H-2A R/B 3.9 23:07:54 10° NE 23:12:05 24° E 23:14:28 18° SE
Cosmos 2322 Rocket 2.6 23:07:32 10° NNW 23:13:08 62° ENE 23:16:03 28° SE
BREEZE-M DEB (TANK) 3.7 23:12:58 35° NNE 23:13:14 36° NNE 23:18:54 10° E
Meteor 2-9 Rocket 4.0 23:08:00 10° N 23:13:21 79° E 23:13:35 76° ESE
Cosmos 2278 3.6 23:07:58 10° NNW 23:13:44 87° ENE 23:14:17 74° SSE
Cosmos 1833 4.5 23:17:36 53° SE 23:18:21 58° ESE 23:23:57 10° NNE
SL-4 R/B 3.5 23:21:45 28° E 23:21:45 28° E 23:23:48 10° ESE
MOZ.5/SAFIR/RUBIN 5/SL-8 3.8 23:24:34 71° ESE 23:24:50 73° ENE 23:29:29 10° N
Cosmos 2219 Rocket 3.2 23:20:23 10° NNW 23:25:47 45° ENE 23:31:10 10° SE
COSMOS 2441 4.2 23:23:56 10° NNE 23:28:44 89° E 23:28:45 89° SE
SL-16 R/B 2.5 23:23:13 10° NNW 23:27:50 50° WNW 23:27:50 50° WNW
Cosmos 1375 Rocket 4.5 23:29:10 58° WSW 23:30:26 74° WNW 23:37:00 10° NNE
ALOS 3.1 23:28:34 10° NNE 23:32:56 43° E 23:33:54 38° SE
Meteor 1-19 Rocket 4.0 23:32:36 69° WSW 23:33:04 74° W 23:38:40 10° N
NOAA 11 4.0 23:28:48 10° NNE 23:34:15 86° WNW 23:35:05 65° SSW
Cosmos 2221 3.4 23:35:54 37° NNW 23:35:54 37° NNW 23:38:48 10° N
ISS -1.9 23:37:43 27° E 23:37:43 27° E 23:39:35 10° ENE
USA 234 4.3 23:30:57 10° E 23:37:03 44° NNE 23:43:11 10° NW
Iridium 4 Rocket 3.2 23:36:50 73° SSE 23:37:16 84° E 23:42:19 10° N
DMSP B5D2-2 4.2 23:35:16 36° SSE 23:37:23 73° ENE 23:42:34 10° N
Meteor 1-11 Rocket 3.7 23:32:21 10° N 23:38:15 85° E 23:40:34 38° SSE
Envisat 3.0 23:36:50 10° NNE 23:41:55 75° ESE 23:43:05 53° S
Meteor 1-10 Rocket 4.1 23:41:03 58° SW 23:42:08 76° W 23:47:58 10° N
Aureole 1 Rocket 4.0 23:39:06 10° N 23:43:23 52° ENE 23:48:44 10° SE
ACS3 Solar Sail 3.2 23:39:42 10° NNW 23:44:04 21° WNW 23:44:46 21° WNW
Gbstr 26 Del rocket 3.2 23:44:13 49° N 23:44:49 56° NNE 23:48:30 10° ESE
Meteor 1-14 Rocket 4.3 23:39:21 10° NNW 23:44:51 51° W 23:45:04 51° WSW
IDEFIX/ARIANE 42P 3.5 23:41:41 10° N 23:46:12 31° WNW 23:46:20 31° WNW
ADEOS Rocket 3.7 23:41:25 10° N 23:48:56 62° WNW 23:52:01 38° SW
Cosmos 990 Rocket 3.8 23:47:06 10° NNW 23:52:14 73° WSW 23:53:43 46° S
Cosmos 1763 Rocket 3.9 23:52:00 45° W 23:52:39 47° WNW 23:57:46 10° N
Cosmos 1461 2.9 23:55:31 56° ESE 23:55:34 56° ESE 23:59:15 10° NE
BREEZE-M DEB (TANK) 4.2 23:41:41 10° WNW 23:55:36 56° N 23:59:29 10° E
